Regional Weather Roundup
Issued by NWS Jackson, KY

Home | Current Version | Previous Version | Text Only | Print | Product List | Glossary On
Versions: 1 2 3 4 5 6 7 8 9 10 11 12 13 14 15 16 17 18 19 20 21 22 23 24 25 26 27 28 29 30 31 32 33 34 35 36 37 38 39 40 41 42 43 44 45 46 47 48 49 50
000
ASUS43 KJKL 201410
RWRJKL

EAST KENTUCKY HOURLY WEATHER ROUNDUP
NATIONAL WEATHER SERVICE JACKSON KY
1000 AM EDT FRI APR 20 2018

NOTE: "FAIR" INDICATES FEW OR NO CLOUDS BELOW 12,000 FEET WITH
NO SIGNIFICANT WEATHER AND/OR OBSTRUCTIONS TO VISIBILITY.

* THESE REPORTS ARE NOT UNDER NWS QUALITY CONTROL AND MAY NOT
  REPORT WEATHER SUCH AS PRECIPITATION AND FOG.

KYZ079-080-083-085-087-088-110-112-115-119-120-201500
...EASTERN KENTUCKY...

CITY           SKY/WX    TMP DP  RH WIND       PRES   REMARKS
JACKSON          N/A     45  27  49 VRB3      30.42R
LONDON           N/A     46  32  58 E8G18     30.42R
SOMERSET*        N/A     46  32  57 E5        30.45R
MONTICELLO*      N/A     47  34  60 VRB5      30.45R
WILLIAMSBURG*    N/A     45  34  65 NE6       30.42R
MIDDLESBORO*     N/A     42  33  70 CALM      30.42S
HARLAN APT*      N/A     42  33  68 CALM      30.40S
PIKE CO APT*     N/A     43  26  51 NE7       30.42R
BIG SANDY APT*   N/A     47  26  44 NE7       30.43R
MOREHEAD APT*    N/A     46  19  34 NE9G17    30.46S
ASHLAND*         N/A     47  26  44 VRB6      30.48R
$$

KYZ035-036-041-042-044-050-067-078-099-201500
...CENTRAL KENTUCKY...

CITY           SKY/WX    TMP DP  RH WIND       PRES   REMARKS
MT STERLING*     N/A     45  28  53 E10       30.47R
FLEMING/MASON*   N/A     45  25  46 E7        30.48R
DANVILLE*        N/A     45  32  61 CALM      30.46R
LEXINGTON        N/A     47  30  51 NE9       30.45R
FRANKFORT        N/A     45  31  58 NE7       30.46R
LOUISVILLE       N/A     47  30  51 NE8       30.48R
GLASGOW*         N/A     46  33  59 E9        30.44S
BOWLING GREEN    N/A     48  34  58 E9        30.44S
$$

KYZ091>093-OHZ055-061-077-WVZ005-015-034-035-042-201500
...SOUTHERN OHIO/WEST VIRGINIA...

CITY           SKY/WX    TMP DP  RH WIND       PRES   REMARKS
COVINGTON        N/A     45  29  53 E6        30.47R
COLUMBUS         N/A     45  25  45 NW8       30.47R
DAYTON           N/A     42  27  55 NE8       30.49R
WILMINGTON       N/A     49  30  48 NW5       30.47R
HUNTINGTON       N/A     43  28  55 NE12      30.46R
CHARLESTON       N/A     45  22  40 VRB6      30.44R
PINEVILLE*       N/A     43  18  36 MISG        N/A
BECKLEY          N/A     38  15  39 NE7       30.36R WCI  33
BLUEFIELD        N/A     38  16  40 N7        30.35R WCI  33
LOGAN CO APT*    N/A     43  19  39 NE9       30.41R
$$

VAZ002-007-008-TNZ017-027-036-066-071-201500
...SOUTHWEST VIRGINIA/EAST TENNESSEE...

CITY           SKY/WX    TMP DP  RH WIND       PRES   REMARKS
WISE*            N/A     41  30  65 N9        30.38R
JONESVILLE*      N/A     45  32  61 CALM      30.43R
ABINGDON*        N/A     45  31  57 CALM      30.37S
BRISTOL          N/A     43  34  70 S3        30.40R
MORRISTOWN*    SUNNY     48  32  53 VRB5G13   30.39R
SEVIERVILLE*   SUNNY     50  32  50 NE7       30.39S
KNOXVILLE        N/A     49  33  54 NE13      30.38R
LAFOLLETTE*    SUNNY     46  34  61 CALM      30.45R
OAK RIDGE        N/A     50  34  54 E8        30.42R
CROSSVILLE       N/A     47  29  49 E14       30.38R
NASHVILLE        N/A     49  33  54 E7        30.42R
$$

...KEY TO REMARKS...
VSB - VISIBILITY IN MILES
WCI - WIND CHILL INDEX
HX  - HEAT INDEX

$$



USA.gov is the U.S. government's official web portal to all federal, state and local government web resources and services.